Theta_e
307 312 314 312 316 318 320 319 319 320 320 320 320 320 320 320 317 318 321 321 321 319 319 319 319 322 322 323 321 324 322 323 318 318 318 318 319 318 320 321 324 321 320 321 320 325 331 329 328 328 326 328 328 327
309 307 310 311 314 318 319 319 320 320 320 320 320 321 319 320 320 317 315 319 317 317 316 316 318 320 321 322 323 323 323 323 323 318 316 316 322 320 320 324 318 322 317 319 321 323 327 328 328 328 328 327 327 326
303 303 304 305 308 314 317 319 321 321 321 320 319 320 321 319 320 320 316 315 318 320 319 319 319 317 319 321 319 323 323 323 324 322 319 316 320 316 320 318 320 321 320 319 321 328 329 328 327 327 327 326 327 326
304 304 304 304 308 310 314 317 318 320 319 317 316 318 320 319 319 321 318 315 320 320 319 324 323 322 319 320 319 318 321 321 323 324 321 316 318 318 316 318 320 321 321 320 323 328 328 328 328 325 326 327 328 328
304 304 305 305 304 309 312 313 316 317 317 318 318 317 319 319 318 320 319 320 320 320 319 320 321 322 321 321 320 319 319 320 322 322 317 317 319 319 318 317 319 323 322 322 323 327 327 327 326 326 325 326 326 325
303 303 304 305 305 305 305 311 314 317 318 318 318 318 318 318 319 320 322 321 320 320 318 314 320 323 322 321 318 318 320 320 320 323 321 323 324 323 320 319 321 329 329 328 328 329 328 326 324 323 323 323 323 323
303 303 303 303 304 305 305 307 312 316 317 317 318 318 318 318 320 319 322 323 321 321 319 320 319 325 321 319 318 318 319 320 323 323 323 323 324 324 317 321 324 327 327 328 327 327 327 325 322 323 325 324 324 324
303 303 303 303 304 304 306 307 315 318 318 318 318 318 316 318 320 320 318 317 320 318 318 317 318 322 320 323 323 323 323 323 323 323 324 322 323 323 321 322 325 325 329 328 326 324 322 323 325 326 324 323 323 323
302 303 303 303 303 304 304 308 312 317 318 318 312 315 319 319 321 322 323 323 322 317 321 319 318 321 322 322 321 323 323 319 322 321 321 323 319 323 322 324 327 327 328 327 323 323 327 326 325 324 324 323 323 324
302 302 303 303 303 304 304 305 311 315 316 312 317 321 322 322 321 321 318 319 318 318 318 317 321 320 321 319 319 322 324 319 323 322 324 320 320 324 327 329 328 328 326 325 327 326 325 325 324 324 324 324 323 322
302 302 303 303 303 304 304 304 307 311 310 318 320 320 321 322 320 321 322 320 319 319 320 320 318 316 319 323 318 326 325 323 323 321 321 320 322 326 328 328 327 326 327 326 326 325 323 324 324 323 323 322 321 320
302 302 303 303 303 304 305 305 305 308 310 318 319 319 319 320 320 320 318 319 318 321 322 321 321 319 318 326 324 324 324 321 324 322 323 325 320 327 326 328 327 327 327 326 324 321 320 322 321 320 320 321 320 319
302 302 304 304 305 305 305 305 305 307 314 319 319 319 321 320 315 320 321 320 320 322 323 325 320 322 325 326 323 320 324 323 322 324 326 322 327 327 329 328 328 327 324 319 318 319 319 320 320 320 321 320 320 321
301 304 306 307 308 308 307 310 310 309 316 319 321 313 318 320 319 318 318 319 322 325 326 325 324 325 327 324 320 323 321 322 325 326 324 322 330 329 328 328 326 320 319 319 320 320 321 321 321 322 323 322 322 322
302 307 307 307 309 310 311 313 312 314 317 318 319 313 317 319 320 320 321 323 326 326 326 325 325 326 322 323 321 322 327 327 324 324 321 328 329 329 328 325 322 320 321 321 320 321 322 322 322 321 321 321 321 321
304 307 307 307 309 310 312 313 313 315 315 316 317 317 319 318 318 318 321 323 325 325 326 327 324 326 326 325 325 326 326 327 323 321 326 326 328 327 324 321 321 320 317 318 319 320 322 322 321 319 319 319 320 320
306 306 307 306 308 310 311 313 314 314 315 316 317 318 318 318 318 319 318 322 323 324 325 326 328 327 324 327 326 323 324 322 326 326 326 324 322 321 321 320 318 317 319 320 320 321 322 320 320 319 319 318 318 318
305 306 306 306 307 310 310 311 312 312 314 314 314 315 316 317 318 317 317 317 322 324 324 325 325 326 327 327 324 322 325 326 325 323 322 321 321 320 319 319 318 318 318 319 323 324 323 322 321 320 319 318 318 320
301 303 304 305 307 309 309 311 312 312 313 314 314 314 314 315 314 313 314 319 322 324 323 324 325 324 322 322 322 324 324 322 322 322 322 321 320 319 319 320 318 318 320 320 321 323 324 324 322 321 323 322 323 325
301 303 305 307 307 308 311 311 312 313 312 314 315 315 315 314 311 311 314 316 319 323 324 324 322 323 324 325 324 325 325 323 323 322 321 321 319 320 321 321 319 318 320 320 321 322 325 326 324 323 323 323 324 324
306 307 307 308 308 308 309 309 312 314 313 314 315 316 318 319 319 319 318 318 321 322 322 323 323 323 323 323 323 323 324 324 323 321 320 318 321 322 323 322 319 319 320 319 321 323 325 325 326 326 325 324 324 325
305 307 309 307 309 308 310 310 311 313 314 316 316 316 317 318 320 320 320 321 322 322 322 321 321 323 323 323 323 324 325 324 322 322 319 320 322 323 322 320 319 320 321 322 323 324 324 325 326 326 326 327 326 326
304 306 308 309 309 310 310 311 313 315 313 316 319 320 320 320 321 321 322 322 322 321 321 321 321 322 323 323 323 324 324 324 323 319 321 322 320 318 317 317 321 322 322 323 324 324 325 325 325 326 327 326 327 328
306 307 309 311 310 309 311 313 314 315 317 318 318 319 320 321 322 324 323 323 323 323 323 323 322 322 324 326 325 324 325 324 320 320 321 316 317 317 317 318 319 320 320 321 323 323 324 324 326 326 323 323 327 328
308 308 308 310 311 313 313 313 315 316 318 318 320 321 320 322 323 324 324 323 323 324 324 324 324 324 325 325 325 325 324 321 320 321 318 318 316 317 317 317 318 319 321 323 322 322 323 325 325 323 322 325 327 326
307 309 310 313 313 313 314 317 317 317 318 321 321 320 320 321 323 323 324 323 325 326 326 324 322 324 325 326 324 324 321 321 322 319 317 317 316 318 318 317 317 317 319 322 321 321 323 326 326 326 326 326 324 326
309 311 311 311 312 314 314 314 315 317 317 318 317 318 320 323 323 324 323 322 323 323 324 327 327 326 326 321 320 321 322 322 321 319 317 317 317 319 318 318 318 317 316 319 321 322 323 325 326 324 324 324 325 325
309 310 311 312 312 314 316 317 317 317 316 317 319 320 323 325 326 322 321 321 322 323 324 325 325 326 327 325 323 324 323 323 323 318 318 317 317 319 319 317 318 318 316 316 319 321 322 324 324 323 323 323 323 323
308 310 311 311 311 313 315 315 318 318 319 319 320 321 322 321 320 321 322 322 322 323 324 326 325 324 326 326 326 323 322 321 321 317 317 317 317 317 320 320 318 317 316 316 318 319 320 322 322 323 323 322 322 321
310 309 311 312 314 314 315 316 318 319 319 318 319 320 320 320 320 320 321 322 323 323 324 325 325 326 325 324 324 323 321 321 320 321 320 319 318 316 317 320 320 318 317 316 316 318 320 321 321 321 321 321 321 321
311 312 312 313 314 316 316 316 316 317 318 318 318 318 320 320 319 320 322 323 323 323 323 325 325 324 324 324 323 322 321 321 320 321 320 318 317 316 316 318 321 319 317 315 315 316 317 319 320 319 319 319 319 320
314 312 313 314 316 317 317 317 318 318 318 319 319 319 320 320 321 321 322 325 324 324 324 324 324 324 323 323 322 322 321 320 320 320 318 316 315 315 315 317 319 320 318 316 314 316 316 316 317 317 317 318 318 317
316 316 316 316 317 318 320 320 321 322 322 321 320 320 320 321 322 323 325 324 324 324 325 325 324 325 324 323 323 322 320 320 319 317 315 313 314 315 315 315 316 320 320 318 315 314 315 313 312 314 314 315 315 314
Wind_Speed
13 16 16 15 15 15 15 13 14 14 13 10 10 11 12 12 9 2 3 5 4 4 9 7 5 3 2 0 2 0 4 3 4 4 3 4 3 4 0 3 2 5 3 3 2 3 3 16 4 6 3 7 10 16
11 13 17 16 15 15 16 14 15 16 15 12 10 10 11 11 11 8 3 9 10 7 7 9 11 13 10 4 2 0 2 3 4 4 1 3 2 1 3 2 3 0 5 4 4 4 5 16 16 10 7 6 8 11
12 13 17 15 15 16 16 16 16 16 14 15 13 10 10 11 11 11 8 6 7 6 10 9 4 10 15 14 9 3 1 2 2 3 7 3 2 4 3 5 1 3 2 3 3 2 8 8 7 5 3 5 7 10
11 11 12 13 14 14 14 16 16 14 14 16 17 13 11 10 11 11 10 6 5 4 3 3 3 3 8 9 8 12 6 1 3 5 3 3 3 6 4 2 3 3 1 4 1 1 3 10 4 5 6 5 7 8
10 10 11 11 12 12 13 13 14 15 15 14 13 12 11 10 8 8 3 1 4 4 3 9 6 6 7 8 9 11 11 8 5 3 3 3 4 3 2 2 2 5 6 4 5 11 6 7 7 2 3 4 7 10
9 9 9 9 9 11 11 12 12 12 11 12 11 11 10 9 6 2 3 4 3 5 5 4 4 5 10 10 9 11 10 8 4 4 3 3 4 3 3 3 5 7 8 9 6 13 10 6 5 4 5 9 11 14
9 9 8 9 9 9 10 9 9 8 8 10 6 5 7 8 5 3 2 3 2 4 3 7 9 1 10 11 9 9 10 5 4 4 4 4 5 4 3 4 8 15 12 13 10 11 9 13 7 7 10 15 18 19
9 9 9 9 8 8 8 8 6 5 6 6 6 6 7 6 5 3 4 6 3 3 3 1 4 5 14 6 5 7 5 5 3 4 3 4 3 3 2 10 14 12 16 13 12 11 7 5 9 13 15 20 22 22
10 10 9 9 8 8 7 7 8 7 7 6 7 5 3 2 2 2 2 5 5 4 2 2 2 3 8 7 5 6 6 1 2 4 4 6 0 3 7 10 14 18 17 9 9 6 8 11 14 18 19 20 20 19
9 9 9 9 8 8 6 6 6 6 5 4 3 2 3 3 2 5 2 2 2 4 5 4 3 3 1 6 3 4 2 2 2 4 5 3 4 8 10 10 13 13 10 7 6 10 11 18 19 20 20 21 22 25
8 8 8 7 7 7 6 5 4 5 4 5 3 2 1 3 2 2 2 2 3 2 6 6 8 3 0 2 3 4 3 1 1 4 3 1 3 4 6 9 10 7 5 6 9 14 19 20 20 23 24 24 24 25
7 7 8 8 8 7 5 3 4 6 5 4 2 1 2 2 2 1 3 1 3 4 5 5 5 10 4 3 3 1 2 2 3 1 2 2 4 6 10 9 7 5 7 11 16 22 22 22 23 25 26 27 28 28
7 8 8 9 7 6 4 3 4 5 6 3 2 1 1 3 1 4 4 2 2 4 4 4 3 5 5 3 5 3 3 3 1 1 3 4 4 12 12 10 8 9 13 17 20 21 22 24 24 26 28 29 30 32
7 7 7 8 8 6 3 2 3 6 5 2 3 2 4 3 4 4 4 3 5 3 8 1 3 2 3 3 2 3 2 2 0 2 4 3 15 14 12 10 9 12 15 19 21 23 25 28 31 33 35 35 34 34
5 4 7 8 7 4 2 2 1 6 2 2 3 3 5 7 7 10 12 6 4 3 4 3 5 3 3 3 2 3 1 3 4 4 3 7 11 12 10 8 11 15 19 22 26 29 31 33 34 36 36 34 32 31
3 1 6 10 7 4 4 3 3 4 2 2 4 3 5 3 5 8 3 1 5 2 6 6 3 2 1 3 1 4 2 4 3 4 4 6 9 9 7 8 12 15 22 25 26 26 27 29 27 28 27 24 23 20
2 2 5 8 6 2 1 3 4 3 3 3 5 8 12 11 10 6 12 6 2 2 2 6 2 3 3 3 2 3 4 3 5 6 7 7 6 6 5 8 13 20 22 22 24 26 22 21 24 25 24 20 17 16
6 4 5 6 4 1 1 2 2 3 5 8 6 6 7 8 8 10 9 11 8 4 9 5 7 3 3 3 3 2 2 1 6 8 7 8 5 4 6 10 16 19 21 22 19 25 21 23 22 22 20 17 14 12
9 9 7 6 2 2 1 2 3 4 8 8 14 18 19 19 18 17 14 10 5 6 7 7 3 3 4 6 6 5 6 7 6 8 9 6 5 5 9 13 16 19 21 22 21 23 24 21 19 16 15 11 14 12
1 1 1 1 6 2 2 3 4 5 5 4 10 12 11 15 18 18 15 13 12 6 5 3 5 7 6 9 7 7 8 10 9 12 10 9 7 9 13 16 18 22 25 25 22 23 22 20 13 14 15 16 17 16
4 1 1 2 5 5 3 4 5 6 7 7 11 11 6 10 13 14 16 15 12 7 7 12 17 16 12 15 15 13 12 12 12 10 8 7 7 14 17 17 19 24 27 24 21 21 20 20 18 16 13 15 16 16
7 3 1 2 2 3 5 7 6 6 5 9 11 7 7 5 7 10 13 11 8 20 21 22 24 22 20 18 14 15 16 9 10 9 8 8 13 15 14 18 24 25 19 15 14 18 20 20 21 18 16 15 15 17
5 4 3 3 3 4 5 5 4 4 3 4 4 3 4 4 4 6 4 7 10 24 26 27 27 23 21 17 16 13 11 11 9 5 6 11 9 9 13 16 16 17 17 12 13 17 19 20 21 17 13 13 10 8
4 3 3 3 6 4 4 4 5 5 4 4 3 3 3 4 4 4 3 5 18 17 14 13 19 19 17 14 20 19 13 12 7 5 7 6 6 7 10 15 17 16 15 14 12 15 17 18 15 10 17 19 11 6
3 4 3 5 5 4 4 3 4 3 3 3 3 3 3 2 2 2 2 5 11 8 9 11 15 17 17 17 15 10 13 9 7 6 4 2 6 6 8 11 13 16 15 8 10 13 14 12 12 8 7 7 7 14
3 5 6 4 4 4 3 2 2 2 3 3 3 4 3 1 3 2 3 17 14 11 3 13 17 16 14 10 10 16 17 13 8 8 6 3 5 5 8 10 17 19 17 9 10 9 10 9 10 10 6 6 6 14
3 4 8 7 5 4 4 6 9 4 3 3 3 3 2 2 2 1 3 14 19 12 6 5 11 12 12 17 18 17 13 9 9 6 9 5 1 4 7 8 13 17 18 14 11 8 8 8 8 10 10 9 9 12
6 5 4 3 4 6 4 4 3 4 3 3 2 2 2 1 1 3 9 20 19 10 10 7 11 13 12 11 11 10 11 11 10 10 12 9 5 2 2 7 9 13 17 16 12 11 9 10 10 12 13 14 15 15
5 6 5 8 7 6 6 7 5 5 4 4 2 2 4 4 17 17 14 18 15 10 9 6 5 11 13 12 11 11 15 16 18 18 19 14 11 7 4 2 5 10 15 18 16 13 11 11 10 10 11 11 14 13
7 10 5 5 4 5 8 10 8 9 10 14 14 15 18 23 19 17 19 16 10 7 3 4 5 10 14 14 15 17 18 16 14 13 13 14 11 7 6 5 3 5 9 15 17 15 15 13 13 12 12 13 13 15
6 6 6 7 6 11 17 18 21 23 23 24 21 21 24 24 24 17 9 6 5 4 4 3 3 5 16 17 18 20 21 14 16 14 10 5 10 10 8 5 6 4 7 10 13 14 15 12 12 12 14 15 15 16
6 10 6 4 7 12 18 17 17 16 19 19 21 21 20 13 7 6 6 5 3 3 3 4 4 5 13 17 19 16 12 10 14 13 11 10 14 12 9 7 6 8 6 7 9 11 13 15 17 19 18 17 17 17
9 12 14 9 6 4 3 4 4 4 5 4 6 13 16 8 5 3 5 6 3 1 5 3 5 6 7 10 16 13 14 13 12 10 8 7 10 11 11 10 8 8 9 7 9 11 11 12 13 13 14 14 16 17
Wind_Direction
278 277 277 283 281 261 268 272 285 296 305 319 333 345 355 6 8 336 267 329 358 277 270 238 229 221 213 349 138 358 86 17 52 70 127 191 147 230 144 230 204 180 150 215 119 105 217 342 347 101 191 55 24 23
277 279 281 277 275 270 265 268 267 279 293 302 314 324 341 350 358 357 294 298 307 274 266 279 253 233 239 233 275 79 121 145 170 93 113 107 136 85 149 262 348 317 177 178 165 202 166 65 93 99 75 37 11 357
285 278 284 279 273 264 265 270 269 270 281 294 299 303 315 335 340 347 335 318 319 293 288 282 281 235 225 227 237 235 189 167 175 162 151 150 135 128 162 241 265 308 148 107 95 221 138 107 86 70 28 335 325 324
290 289 285 285 281 272 267 266 271 272 282 290 291 281 292 314 325 334 330 304 343 324 322 266 203 121 183 195 215 222 214 223 183 159 105 128 149 185 198 194 158 205 98 136 84 228 208 214 331 337 338 316 319 324
289 292 290 286 287 280 271 266 267 273 281 289 290 273 278 292 308 332 335 316 355 358 291 294 287 209 213 205 228 220 225 224 195 141 92 201 159 125 70 83 250 188 172 154 219 191 191 201 219 251 297 312 321 323
292 290 293 294 293 289 280 271 266 269 278 285 280 282 275 272 276 272 232 248 297 337 327 325 295 257 192 200 214 203 189 201 184 161 175 193 160 153 130 202 254 191 202 221 211 201 214 224 218 230 300 320 323 315
296 293 291 295 298 297 290 274 270 272 278 286 289 278 259 266 242 231 199 158 305 296 286 310 314 268 196 182 184 188 191 198 191 166 189 185 195 189 129 194 239 234 231 209 203 189 218 228 235 275 305 313 314 310
307 301 297 296 298 295 287 280 260 257 279 293 290 273 270 257 269 241 226 222 263 257 264 268 275 318 182 168 175 185 172 187 204 198 188 200 153 173 235 241 249 248 204 207 206 217 239 249 270 288 302 313 315 315
311 309 305 302 300 296 287 269 246 248 268 284 293 270 242 217 139 133 203 246 261 232 251 207 221 245 183 193 162 160 187 128 213 200 227 149 206 219 225 232 230 199 194 209 204 219 259 270 291 302 307 309 317 314
317 317 314 308 302 298 291 274 247 240 262 277 235 170 136 146 170 310 242 224 206 206 226 238 237 265 242 178 159 132 176 175 164 247 145 138 244 256 271 258 205 189 198 194 222 257 272 287 296 299 300 303 307 308
322 325 325 319 314 313 300 277 228 216 215 199 177 163 171 205 269 225 221 205 182 253 218 238 225 243 207 120 193 196 169 115 115 259 147 304 285 242 162 148 158 172 202 250 276 291 295 292 296 299 297 300 304 306
326 334 330 323 315 313 307 279 216 194 193 188 199 232 189 215 210 211 227 208 192 231 210 206 232 208 223 200 118 80 121 68 221 317 78 273 254 183 172 171 182 220 267 287 296 305 302 295 297 298 295 296 299 302
334 335 332 327 321 313 308 267 207 196 176 179 195 171 192 178 43 209 209 250 258 220 221 241 223 192 169 146 81 81 88 225 344 50 231 227 208 181 187 198 228 268 298 304 304 302 298 295 293 293 296 296 297 302
335 337 338 343 343 328 317 176 192 183 170 180 163 308 181 212 234 203 204 210 274 259 335 257 155 150 106 81 138 106 222 98 327 233 238 241 202 199 206 231 269 302 301 300 303 304 301 299 299 298 297 298 299 300
334 358 5 349 345 343 155 139 186 174 183 224 200 224 224 243 281 300 277 275 253 307 23 89 61 76 30 95 31 102 132 238 209 225 230 215 207 209 227 257 289 297 305 307 308 302 300 300 299 299 299 298 294 294
316 18 355 359 3 8 160 165 188 191 274 251 235 269 270 299 328 355 347 101 44 104 86 63 53 58 88 111 118 197 171 225 245 215 208 201 189 205 234 277 304 314 315 306 304 308 312 313 312 315 313 308 303 295
341 264 327 345 354 339 235 188 154 228 259 258 248 247 267 282 273 308 335 312 20 180 105 73 349 71 311 107 250 189 212 231 225 215 168 159 180 212 279 307 322 324 321 319 317 316 314 321 318 316 316 320 310 299
227 255 282 333 346 231 232 196 228 247 254 251 252 253 236 253 281 295 307 326 326 170 156 164 163 179 236 216 230 238 255 181 155 165 185 199 226 274 289 316 326 329 332 330 325 330 316 318 322 327 323 317 306 311
270 271 270 279 279 235 312 279 251 260 252 265 265 270 274 275 277 280 290 304 279 225 156 166 153 190 224 226 211 237 198 173 203 214 207 217 254 290 303 307 315 325 329 332 327 332 328 315 321 326 335 326 321 334
286 325 349 215 182 241 297 243 246 269 269 279 272 275 271 264 264 263 260 263 265 204 188 186 206 216 230 253 226 219 240 216 228 204 216 244 277 297 307 303 305 317 325 329 327 331 333 328 314 311 308 308 311 312
162 69 319 237 220 237 257 255 251 251 279 263 279 285 271 254 254 251 244 240 230 210 211 215 227 243 239 255 281 277 233 239 248 237 275 272 288 303 305 302 306 309 312 318 323 330 335 335 332 323 303 297 300 296
202 202 246 210 214 234 261 239 245 286 265 267 287 259 252 249 239 235 228 215 231 235 234 238 234 231 239 243 274 256 248 261 232 248 257 274 298 309 316 315 310 318 331 333 329 334 338 341 340 331 319 310 291 286
180 187 241 241 234 238 270 241 251 253 248 262 262 241 233 231 226 178 212 222 241 247 245 244 242 234 242 251 249 230 236 224 230 240 300 294 303 321 328 336 339 339 338 341 338 343 345 342 339 347 353 352 328 319
153 205 241 223 208 257 260 238 227 258 252 244 248 265 254 234 191 199 240 245 257 265 251 241 229 228 230 227 222 231 245 215 216 258 281 297 315 325 352 358 358 348 334 325 335 348 350 349 0 41 32 9 14 84
250 231 228 253 233 231 229 252 224 246 254 252 245 268 266 339 54 332 259 298 308 278 224 203 199 205 213 219 228 232 197 193 202 243 224 251 344 349 4 8 1 359 2 8 4 1 3 5 37 74 53 36 66 78
243 212 207 234 209 197 230 280 15 311 291 261 273 279 293 295 188 242 356 2 22 14 217 197 194 200 214 219 211 174 173 187 199 209 206 108 17 2 5 12 16 17 14 11 6 6 8 28 50 50 60 41 87 104
248 248 227 236 263 266 258 262 252 243 262 258 282 306 311 260 232 76 359 358 360 6 30 185 209 207 179 172 171 176 182 199 218 220 173 135 106 35 25 25 19 17 18 21 22 33 36 48 72 59 62 66 76 103
244 275 232 255 297 267 263 252 252 227 235 237 265 264 254 287 139 267 316 345 356 4 2 232 224 207 200 195 202 209 222 226 211 208 185 180 197 230 33 33 25 25 22 27 39 48 53 58 71 73 80 91 89 100
251 246 274 266 262 246 233 214 247 239 230 208 224 280 279 285 305 312 323 337 345 360 21 61 156 180 187 197 214 215 206 202 198 200 206 208 212 223 218 95 36 37 35 40 47 52 62 75 82 89 100 97 94 102
245 230 224 255 221 225 229 217 244 250 290 297 287 273 274 288 302 322 311 316 315 328 320 74 94 189 200 206 208 208 208 220 229 237 243 247 230 193 200 182 134 61 54 46 50 62 66 79 85 85 98 110 105 107
257 208 224 237 255 255 267 272 278 279 278 276 271 268 268 285 300 312 306 286 264 252 206 163 151 192 197 206 212 213 211 231 226 239 259 252 186 175 161 173 171 149 86 69 59 61 68 91 95 95 96 102 104 108
226 213 222 236 261 285 290 274 268 255 264 256 252 254 257 264 279 291 293 309 248 280 239 231 196 171 203 218 230 231 226 218 212 228 216 217 189 169 173 176 191 183 154 108 94 87 85 84 84 88 95 105 109 104
241 249 256 274 272 269 274 249 261 260 234 237 237 233 227 211 232 270 299 314 334 145 190 186 176 170 180 212 228 230 212 217 204 182 172 173 180 178 171 164 165 181 190 158 135 120 111 99 87 94 97 101 106 106